Location: Doschendorf
(50.0069°N, 11.0602°E)
Time: 16:50:20
(UTC+00:00)

Cosmos 1633 - Pass Details

Date: 17 November 2019
Orbit: 465 x 482 km, 82.5° (Epoch: 14 December)

Event Time Altitude Azimuth Distance (km) Brightness Sun altitude
Rises 16:59:03 0° 349° (N) 2,562 6.2 -14.2°
Reaches altitude 10° 17:01:10 10° 350° (N) 1,676 5.3 -14.5°
Maximum altitude 17:04:50 88° 270° (W) 490 2.5 -15.1°
Drops below altitude 10° 17:08:28 10° 172° (S) 1,655 5.3 -15.7°
Sets 17:10:32 0° 172° (S) 2,527 6.2 -16.0°
